EW9310 Weather Reports


Display with metric or nautical units.
time (UTC)temp
F
wind
direction
speed
MPH
gust
MPH
rain 1hr
in
rain 24hr
in
rain mn
in
humidity
%
barometer
mb
20260505025004 58 241 1.0 2.0 0.00 0.00 0.00 57 1003.3
20260505024517 57 230 1.0 2.0 0.00 0.00 0.00 62 1003.3
20260505024003 56 227 0.0 2.0 0.00 0.00 0.00 64 1003.3
20260505023505 56 212 0.0 2.0 0.00 0.00 0.00 64 1003.3
20260505023022 56 212 0.0 2.0 0.00 0.00 0.00 66 1003.4
20260505022506 56 212 0.0 2.0 0.00 0.00 0.00 65 1003.4
20260505022007 56 213 0.0 2.0 0.00 0.00 0.00 67 1003.4
20260505021519 56 212 0.0 2.0 0.00 0.00 0.00 66 1003.5
20260505021003 57 212 0.0 2.0 0.00 0.00 0.00 66 1003.4
20260505020506 57 212 0.0 2.0 0.00 0.00 0.00 65 1003.4
20260505020017 57 212 0.0 2.0 0.00 0.00 0.00 64 1003.4
20260505015506 57 212 0.0 2.0 0.00 0.00 0.00 62 1003.4
20260505015006 58 212 0.0 2.0 0.00 0.00 0.00 62 1003.4
20260505014520 58 212 0.0 2.0 0.00 0.01 0.00 61 1003.4
20260505014005 58 213 0.0 0.0 0.00 0.01 0.00 61 1003.4
20260505013508 58 212 0.0 2.0 0.00 0.01 0.00 59 1003.4
20260505013027 59 213 0.0 2.0 0.00 0.01 0.00 58 1003.4
20260505012505 59 212 0.0 2.0 0.00 0.01 0.00 57 1003.5
20260505012004 59 212 0.0 1.0 0.00 0.02 0.00 57 1003.5
20260505011515 59 212 0.0 0.0 0.00 0.02 0.00 56 1003.5
20260505011003 60 212 0.0 0.0 0.00 0.02 0.00 54 1003.6
20260505010505 60 212 0.0 2.0 0.00 0.02 0.00 53 1003.5
20260505010029 60 212 0.0 2.0 0.00 0.02 0.00 52 1003.5
20260505005507 61 212 0.0 2.0 0.00 0.02 0.00 53 1003.5
20260505005007 62 212 0.0 2.0 0.00 0.02 0.00 52 1003.5
20260505004522 62 213 0.0 0.0 0.00 0.02 0.00 51 1003.5
20260505004009 63 212 0.0 0.0 0.00 0.02 0.00 49 1003.4
20260505003502 63 212 0.0 0.0 0.00 0.02 0.00 49 1003.5
20260505003010 64 212 0.0 0.0 0.00 0.02 0.00 46 1003.6
20260505002504 64 212 0.0 0.0 0.00 0.02 0.00 46 1003.6
20260505002008 65 212 0.0 0.0 0.00 0.02 0.00 47 1003.7
20260505001516 66 212 0.0 0.0 0.00 0.02 0.00 46 1003.6
20260505001006 66 212 0.0 0.0 0.00 0.02 0.00 46 1003.6
20260505000509 67 212 0.0 0.0 0.00 0.02 0.00 44 1003.6
20260505000032 68 212 0.0 0.0 0.00 0.02 0.00 43 1003.6
20260504235507 69 212 0.0 0.0 0.00 0.02 0.00 41 1003.5
20260504235006 69 213 0.0 2.0 0.00 0.02 0.00 40 1003.5
20260504234521 70 213 0.0 2.0 0.00 0.02 0.00 39 1003.4
20260504234004 70 212 0.0 1.0 0.00 0.02 0.00 37 1003.3
20260504233506 71 212 0.0 2.0 0.00 0.02 0.00 37 1003.3
20260504233008 71 212 0.0 2.0 0.00 0.02 0.00 35 1003.3
20260504232505 72 212 0.0 2.0 0.00 0.02 0.00 34 1003.3
20260504232008 72 232 0.0 2.0 0.00 0.02 0.00 33 1003.3
20260504231516 72 232 1.0 4.0 0.00 0.02 0.00 33 1003.3
20260504231009 72 218 2.0 4.0 0.00 0.02 0.00 32 1003.2
20260504230508 73 212 1.0 4.0 0.00 0.02 0.00 32 1003.3
20260504230035 73 243 1.0 5.0 0.00 0.02 0.00 32 1003.3
20260504225506 73 256 2.0 5.0 0.00 0.02 0.00 31 1003.4
20260504225007 74 191 0.0 7.0 0.00 0.02 0.00 31 1003.3
20260504224523 74 248 2.0 11.0 0.00 0.02 0.00 31 1003.3
20260504224004 74 216 2.0 11.0 0.00 0.02 0.00 31 1003.4
20260504223503 74 232 2.0 9.0 0.00 0.02 0.00 32 1003.5
20260504223021 74 192 4.0 9.0 0.00 0.02 0.00 31 1003.6
20260504222507 74 268 4.0 9.0 0.00 0.02 0.00 31 1003.5
20260504222006 74 186 4.0 7.0 0.00 0.02 0.00 31 1003.6
20260504221539 75 186 2.0 9.0 0.00 0.02 0.00 31 1003.6
20260504221007 74 257 3.0 9.0 0.00 0.02 0.00 32 1003.6
20260504220508 75 286 2.0 6.0 0.00 0.02 0.00 32 1003.6
20260504220023 74 5 2.0 9.0 0.00 0.02 0.00 32 1003.7
20260504215512 74 233 1.0 9.0 0.00 0.02 0.00 34 1003.8
20260504215013 74 204 1.0 8.0 0.00 0.02 0.00 35 1003.8
20260504214508 74 259 2.0 12.0 0.00 0.02 0.00 32 1003.7
20260504214007 75 205 5.0 12.0 0.00 0.02 0.00 33 1003.8
20260504213503 74 187 2.0 15.0 0.00 0.02 0.00 34 1003.8
20260504213016 74 251 7.0 15.0 0.00 0.02 0.00 32 1003.8
20260504212508 74 244 2.0 10.0 0.00 0.02 0.00 36 1003.8
20260504212009 74 254 3.0 9.0 0.00 0.02 0.00 34 1003.8
20260504211525 74 321 5.0 12.0 0.00 0.02 0.00 33 1003.9
20260504211007 74 245 1.0 12.0 0.00 0.02 0.00 34 1003.8
20260504210509 75 267 4.0 8.0 0.00 0.02 0.00 34 1003.9
20260504210024 74 217 4.0 7.0 0.00 0.02 0.00 35 1003.8
20260504205511 74 215 3.0 7.0 0.00 0.02 0.00 37 1003.8
20260504205008 73 195 4.0 9.0 0.00 0.02 0.00 36 1003.9
20260504204527 72 204 5.0 14.0 0.00 0.02 0.00 38 1003.9
20260504204003 73 249 3.0 14.0 0.00 0.02 0.00 36 1003.9
20260504203506 73 202 3.0 11.0 0.00 0.02 0.00 39 1004.1
20260504203018 73 296 2.0 11.0 0.00 0.02 0.00 38 1004.0
20260504202507 74 169 4.0 10.0 0.00 0.02 0.00 36 1004.1
20260504202008 73 196 5.0 12.0 0.00 0.02 0.00 35 1004.2
20260504201524 73 241 6.0 12.0 0.00 0.02 0.00 36 1004.2
20260504201011 73 194 4.0 11.0 0.00 0.02 0.00 37 1004.4
20260504200513 73 251 3.0 11.0 0.00 0.02 0.00 36 1004.3
20260504200023 72 229 2.0 12.0 0.00 0.02 0.00 37 1004.3
20260504195507 73 216 5.0 12.0 0.00 0.02 0.00 35 1004.5
20260504195003 74 223 5.0 12.0 0.00 0.02 0.00 37 1004.6
20260504194513 73 303 2.0 13.0 0.00 0.02 0.00 38 1004.5
20260504194008 72 262 4.0 13.0 0.00 0.02 0.00 37 1004.7
20260504193508 72 258 5.0 13.0 0.00 0.02 0.00 39 1004.5
20260504193026 72 284 4.0 15.0 0.00 0.02 0.00 39 1004.8
20260504192510 72 220 6.0 14.0 0.00 0.02 0.00 37 1004.8
20260504192012 71 247 4.0 17.0 0.00 0.02 0.00 39 1004.7
20260504191534 71 252 10.0 17.0 0.00 0.02 0.00 37 1004.8
20260504191008 72 244 3.0 11.0 0.00 0.02 0.00 39 1004.9
20260504190507 71 221 6.0 11.0 0.00 0.02 0.00 40 1005.0
20260504190025 70 276 2.0 12.0 0.00 0.02 0.00 42 1005.1
20260504185504 70 259 6.0 15.0 0.00 0.02 0.00 41 1005.1
20260504185007 71 221 6.0 15.0 0.00 0.02 0.00 40 1005.1
20260504184519 71 223 7.0 15.0 0.00 0.02 0.00 43 1005.1
20260504184002 71 263 5.0 12.0 0.00 0.02 0.00 42 1005.2
20260504183502 71 246 4.0 12.0 0.00 0.02 0.00 41 1005.2
20260504183004 71 209 3.0 12.0 0.00 0.02 0.00 41 1005.2
20260504182512 71 244 3.0 9.0 0.00 0.02 0.00 43 1005.2
20260504182003 71 203 3.0 12.0 0.00 0.02 0.00 40 1005.3
20260504181513 71 292 2.0 12.0 0.00 0.02 0.00 43 1005.4
20260504181003 70 300 7.0 12.0 0.00 0.02 0.00 40 1005.6
20260504180510 70 269 5.0 13.0 0.00 0.02 0.00 41 1005.6
20260504180016 69 235 5.0 16.0 0.00 0.02 0.00 42 1005.8
20260504175507 69 277 8.0 16.0 0.00 0.02 0.00 42 1005.9
20260504175010 69 260 5.0 15.0 0.00 0.02 0.00 44 1005.8
20260504174524 69 214 5.0 15.0 0.00 0.02 0.00 42 1005.8
20260504174003 69 316 6.0 15.0 0.00 0.02 0.00 41 1005.9
20260504173503 69 319 4.0 16.0 0.00 0.02 0.00 43 1005.8
20260504173004 69 218 8.0 16.0 0.00 0.02 0.00 42 1005.9
20260504172502 69 280 5.0 12.0 0.00 0.02 0.00 44 1005.9
20260504172010 68 191 4.0 15.0 0.00 0.02 0.00 47 1006.0
20260504171508 68 220 3.0 15.0 0.00 0.02 0.00 43 1006.0
20260504171006 67 244 5.0 17.0 0.00 0.02 0.00 46 1006.2
20260504170506 67 223 4.0 17.0 0.00 0.02 0.00 43 1006.2
20260504151009 63 244 8.0 14.0 0.00 0.02 0.00 46 1007.0
20260504150510 62 262 7.0 14.0 0.00 0.02 0.00 46 1007.2
20260504141009 59 219 5.0 15.0 0.00 0.02 0.00 49 1007.4
20260504140507 59 191 7.0 14.0 0.00 0.02 0.00 47 1007.4
20260504130511 55 238 4.0 10.0 0.00 0.02 0.00 52 1007.9
20260504110513 52 291 3.0 9.0 0.00 0.02 0.00 55 1007.7
20260504100509 51 198 2.0 7.0 0.00 0.02 0.00 59 1007.6
20260504081529 51 239 2.0 8.0 0.00 0.02 0.00 56 1008.0
20260504081018 51 249 2.0 7.0 0.00 0.02 0.00 56 1008.1
20260504080505 51 234 2.0 8.0 0.00 0.02 0.00 56 1008.1
20260504050513 46 144 0.0 0.0 0.00 0.02 0.00 90 1009.0
20260504045507 46 144 0.0 0.0 0.00 0.02 0.00 90 1009.1
20260504045004 46 144 0.0 0.0 0.00 0.02 0.00 90 1009.1
20260504044525 46 144 0.0 0.0 0.00 0.02 0.00 90 1009.1
20260504044007 46 144 0.0 0.0 0.00 0.02 0.00 90 1009.2
20260504043504 46 144 0.0 0.0 0.00 0.02 0.00 90 1009.2
20260504043013 46 144 0.0 0.0 0.00 0.02 0.00 90 1009.2
20260504042505 46 144 0.0 0.0 0.00 0.02 0.00 90 1009.3
20260504042006 46 144 0.0 0.0 0.00 0.02 0.00 90 1009.3
20260504041518 46 144 0.0 0.0 0.00 0.02 0.00 90 1009.2
20260504041006 46 144 0.0 2.0 0.00 0.02 0.00 90 1009.1
20260504040507 46 144 0.0 2.0 0.00 0.02 0.00 90 1009.2
20260504040037 46 144 0.0 0.0 0.00 0.02 0.00 90 1009.2
20260504035506 46 144 0.0 0.0 0.00 0.02 0.02 90 1009.3
20260504035008 46 144 0.0 0.0 0.00 0.02 0.02 90 1009.3
20260504034507 46 144 0.0 0.0 0.00 0.02 0.02 90 1009.3
20260504034004 46 144 0.0 2.0 0.00 0.02 0.02 90 1009.3
20260504033504 46 144 0.0 2.0 0.00 0.02 0.02 90 1009.3
20260504033019 46 144 0.0 2.0 0.00 0.02 0.02 90 1009.3
20260504032504 46 110 0.0 2.0 0.00 0.02 0.02 90 1009.4
20260504032008 46 9 0.0 2.0 0.00 0.02 0.02 90 1009.6
20260504031520 46 14 0.0 2.0 0.00 0.02 0.02 90 1009.5
20260504031009 46 169 0.0 1.0 0.00 0.02 0.02 89 1009.5
20260504030507 46 169 0.0 0.0 0.00 0.02 0.02 89 1009.5
20260504030009 46 169 0.0 0.0 0.00 0.02 0.02 89 1009.7
20260504025504 46 169 0.0 1.0 0.00 0.02 0.02 89 1009.6